Year,Month,Day,Hour,Minute,Value (Times are PST for temperature in C)
2013,02,09,00,00,2.80
2013,02,09,00,01,2.70
2013,02,09,00,02,2.70
2013,02,09,00,03,2.70
2013,02,09,00,04,2.70
2013,02,09,00,05,2.70
2013,02,09,00,06,2.70
2013,02,09,00,07,2.70
2013,02,09,00,08,2.70
2013,02,09,00,09,2.70
2013,02,09,00,10,2.70
2013,02,09,00,11,2.70
2013,02,09,00,12,2.70
2013,02,09,00,13,2.70
2013,02,09,00,14,2.70
2013,02,09,00,15,2.70
2013,02,09,00,16,2.70
2013,02,09,00,17,2.60
2013,02,09,00,18,2.60
2013,02,09,00,19,2.60
2013,02,09,00,20,2.60
2013,02,09,00,21,2.60
2013,02,09,00,22,2.60
2013,02,09,00,23,2.60
2013,02,09,00,24,2.60
2013,02,09,00,25,2.60
2013,02,09,00,26,2.60
2013,02,09,00,27,2.60
2013,02,09,00,28,2.60
2013,02,09,00,29,2.60
2013,02,09,00,30,2.60
2013,02,09,00,31,2.60
2013,02,09,00,32,2.60
2013,02,09,00,33,2.60
2013,02,09,00,34,2.60
2013,02,09,00,35,2.60
2013,02,09,00,36,2.60
2013,02,09,00,37,2.60
2013,02,09,00,38,2.70
2013,02,09,00,39,2.60
2013,02,09,00,40,2.60
2013,02,09,00,41,2.60
2013,02,09,00,42,2.60
2013,02,09,00,43,2.60
2013,02,09,00,44,2.60
2013,02,09,00,45,2.60
2013,02,09,00,46,2.60
2013,02,09,00,47,2.60
2013,02,09,00,48,2.60
2013,02,09,00,49,2.60
2013,02,09,00,50,2.60
2013,02,09,00,51,2.60
2013,02,09,00,52,2.50
2013,02,09,00,53,2.50
2013,02,09,00,54,2.50
2013,02,09,00,55,2.50
2013,02,09,00,56,2.50
2013,02,09,00,57,2.50
2013,02,09,00,58,2.40
2013,02,09,00,59,2.40
2013,02,09,01,00,2.40
2013,02,09,01,01,2.40
2013,02,09,01,02,2.30
2013,02,09,01,03,2.30
2013,02,09,01,04,2.30
2013,02,09,01,05,2.30
2013,02,09,01,06,2.30
2013,02,09,01,07,2.30
2013,02,09,01,08,2.20
2013,02,09,01,09,2.20
2013,02,09,01,10,2.20
2013,02,09,01,11,2.20
2013,02,09,01,12,2.20
2013,02,09,01,13,2.20
2013,02,09,01,14,2.20
2013,02,09,01,15,2.20
2013,02,09,01,16,2.20
2013,02,09,01,17,2.20
2013,02,09,01,18,2.20
2013,02,09,01,19,2.10
2013,02,09,01,20,2.10
2013,02,09,01,21,2.10
2013,02,09,01,22,2.10
2013,02,09,01,23,2.10
2013,02,09,01,24,2.10
2013,02,09,01,25,2.10
2013,02,09,01,26,2.10
2013,02,09,01,27,2.20
2013,02,09,01,28,2.20
2013,02,09,01,29,2.20
2013,02,09,01,30,2.20
2013,02,09,01,31,2.20
2013,02,09,01,32,2.20
2013,02,09,01,33,2.20
2013,02,09,01,34,2.20
2013,02,09,01,35,2.20
2013,02,09,01,36,2.20
2013,02,09,01,37,2.20
2013,02,09,01,38,2.20
2013,02,09,01,39,2.20
2013,02,09,01,40,2.10
2013,02,09,01,41,2.10
2013,02,09,01,42,2.10
2013,02,09,01,43,2.10
2013,02,09,01,44,2.10
2013,02,09,01,45,2.10
2013,02,09,01,46,2.10
2013,02,09,01,47,2.10
2013,02,09,01,48,2.10
2013,02,09,01,49,2.10
2013,02,09,01,50,2.10
2013,02,09,01,51,2.10
2013,02,09,01,52,2.10
2013,02,09,01,53,2.10
2013,02,09,01,54,2.10
2013,02,09,01,55,2.10
2013,02,09,01,56,2.10
2013,02,09,01,57,2.10
2013,02,09,01,58,2.10
2013,02,09,01,59,2.10
2013,02,09,02,00,2.10
2013,02,09,02,01,2.10
2013,02,09,02,02,2.10
2013,02,09,02,03,2.20
2013,02,09,02,04,2.20
2013,02,09,02,05,2.20
2013,02,09,02,06,2.20
2013,02,09,02,07,2.20
2013,02,09,02,08,2.20
2013,02,09,02,09,2.20
2013,02,09,02,10,2.20
2013,02,09,02,11,2.20
2013,02,09,02,12,2.20
2013,02,09,02,13,2.20
2013,02,09,02,14,2.20
2013,02,09,02,15,2.20
2013,02,09,02,16,2.20
2013,02,09,02,17,2.20
2013,02,09,02,18,2.20
2013,02,09,02,19,2.20
2013,02,09,02,20,2.20
2013,02,09,02,21,2.20
2013,02,09,02,22,2.20
2013,02,09,02,23,2.20
2013,02,09,02,24,2.20
2013,02,09,02,25,2.20
2013,02,09,02,26,2.20
2013,02,09,02,27,2.20
2013,02,09,02,28,2.20
2013,02,09,02,29,2.20
2013,02,09,02,30,2.20
2013,02,09,02,31,2.20
2013,02,09,02,32,2.20
2013,02,09,02,33,2.20
2013,02,09,02,34,2.30
2013,02,09,02,35,2.30
2013,02,09,02,36,2.30
2013,02,09,02,37,2.30
2013,02,09,02,38,2.30
2013,02,09,02,39,2.30
2013,02,09,02,40,2.30
2013,02,09,02,41,2.30
2013,02,09,02,42,2.30
2013,02,09,02,43,2.30
2013,02,09,02,44,2.30
2013,02,09,02,45,2.30
2013,02,09,02,46,2.30
2013,02,09,02,47,2.30
2013,02,09,02,48,2.30
2013,02,09,02,49,2.30
2013,02,09,02,50,2.30
2013,02,09,02,51,2.40
2013,02,09,02,52,2.40
2013,02,09,02,53,2.40
2013,02,09,02,54,2.40
2013,02,09,02,55,2.40
2013,02,09,02,56,2.40
2013,02,09,02,57,2.40
2013,02,09,02,58,2.40
2013,02,09,02,59,2.40
2013,02,09,03,00,2.40
2013,02,09,03,01,2.40
2013,02,09,03,02,2.50
2013,02,09,03,03,2.50
2013,02,09,03,04,2.50
2013,02,09,03,05,2.50
2013,02,09,03,06,2.50
2013,02,09,03,07,2.60
2013,02,09,03,08,2.60
2013,02,09,03,09,2.60
2013,02,09,03,10,2.60
2013,02,09,03,11,2.60
2013,02,09,03,12,2.60
2013,02,09,03,13,2.60
2013,02,09,03,14,2.60
2013,02,09,03,15,2.60
2013,02,09,03,16,2.60
2013,02,09,03,17,2.60
2013,02,09,03,18,2.60
2013,02,09,03,19,2.60
2013,02,09,03,20,2.60
2013,02,09,03,21,2.60
2013,02,09,03,22,2.60
2013,02,09,03,23,2.60
2013,02,09,03,24,2.60
2013,02,09,03,25,2.60
2013,02,09,03,26,2.60
2013,02,09,03,27,2.60
2013,02,09,03,28,2.60
2013,02,09,03,29,2.60
2013,02,09,03,30,2.60
2013,02,09,03,31,2.60
2013,02,09,03,32,2.60
2013,02,09,03,33,2.60
2013,02,09,03,34,2.60
2013,02,09,03,35,2.60
2013,02,09,03,36,2.60
2013,02,09,03,37,2.60
2013,02,09,03,38,2.60
2013,02,09,03,39,2.60
2013,02,09,03,40,2.60
2013,02,09,03,41,2.60
2013,02,09,03,42,2.60
2013,02,09,03,43,2.60
2013,02,09,03,44,2.60
2013,02,09,03,45,2.60
2013,02,09,03,46,2.60
2013,02,09,03,47,2.60
2013,02,09,03,48,2.60
2013,02,09,03,49,2.60
2013,02,09,03,50,2.60
2013,02,09,03,51,2.60
2013,02,09,03,52,2.60
2013,02,09,03,53,2.60
2013,02,09,03,54,2.60
2013,02,09,03,55,2.60
2013,02,09,03,56,2.60
2013,02,09,03,57,2.70
2013,02,09,03,58,2.70
2013,02,09,03,59,2.70
2013,02,09,04,00,2.70
2013,02,09,04,01,2.70
2013,02,09,04,02,2.70
2013,02,09,04,03,2.70
2013,02,09,04,04,2.70
2013,02,09,04,05,2.70
2013,02,09,04,06,2.70
2013,02,09,04,07,2.70
2013,02,09,04,08,2.70
2013,02,09,04,09,2.70
2013,02,09,04,10,2.70
2013,02,09,04,11,2.70
2013,02,09,04,12,2.70
2013,02,09,04,13,2.70
2013,02,09,04,14,2.70
2013,02,09,04,15,2.70
2013,02,09,04,16,2.70
2013,02,09,04,17,2.70
2013,02,09,04,18,2.70
2013,02,09,04,19,2.70
2013,02,09,04,20,2.70
2013,02,09,04,21,2.70
2013,02,09,04,22,2.70
2013,02,09,04,23,2.70
2013,02,09,04,24,2.70
2013,02,09,04,25,2.70
2013,02,09,04,26,2.70
2013,02,09,04,27,2.70
2013,02,09,04,28,2.70
2013,02,09,04,29,2.70
2013,02,09,04,30,2.70
2013,02,09,04,31,2.70
2013,02,09,04,32,2.70
2013,02,09,04,33,2.70
2013,02,09,04,34,2.70
2013,02,09,04,35,2.70
2013,02,09,04,36,2.70
2013,02,09,04,37,2.70
2013,02,09,04,38,2.70
2013,02,09,04,39,2.70
2013,02,09,04,40,2.80
2013,02,09,04,41,2.80
2013,02,09,04,42,2.80
2013,02,09,04,43,2.80
2013,02,09,04,44,2.80
2013,02,09,04,45,2.80
2013,02,09,04,46,2.80
2013,02,09,04,47,2.80
2013,02,09,04,48,2.80
2013,02,09,04,49,2.80
2013,02,09,04,50,2.80
2013,02,09,04,51,2.80
2013,02,09,04,52,2.80
2013,02,09,04,53,2.90
2013,02,09,04,54,2.80
2013,02,09,04,55,2.90
2013,02,09,04,56,2.90
2013,02,09,04,57,2.90
2013,02,09,04,58,2.90
2013,02,09,04,59,2.90
2013,02,09,05,00,2.90
2013,02,09,05,01,2.90
2013,02,09,05,02,2.90
2013,02,09,05,03,2.90
2013,02,09,05,04,2.90
2013,02,09,05,05,2.90
2013,02,09,05,06,2.90
2013,02,09,05,07,2.90
2013,02,09,05,08,2.90
2013,02,09,05,09,2.90
2013,02,09,05,10,2.90
2013,02,09,05,11,2.90
2013,02,09,05,12,2.90
2013,02,09,05,13,2.90
2013,02,09,05,14,2.90
2013,02,09,05,15,2.90
2013,02,09,05,16,2.90
2013,02,09,05,17,2.90
2013,02,09,05,18,2.90
2013,02,09,05,19,2.80
2013,02,09,05,20,2.80
2013,02,09,05,21,2.80
2013,02,09,05,22,2.80
2013,02,09,05,23,2.80
2013,02,09,05,24,2.80
2013,02,09,05,25,2.80
2013,02,09,05,26,2.80
2013,02,09,05,27,2.80
2013,02,09,05,28,2.80
2013,02,09,05,29,2.80
2013,02,09,05,30,2.80
2013,02,09,05,31,2.80
2013,02,09,05,32,2.80
2013,02,09,05,33,2.80
2013,02,09,05,34,2.80
2013,02,09,05,35,2.80
2013,02,09,05,36,2.90
2013,02,09,05,37,2.80
2013,02,09,05,38,2.90
2013,02,09,05,39,2.90
2013,02,09,05,40,2.80
2013,02,09,05,41,2.80
2013,02,09,05,42,2.80
2013,02,09,05,43,2.80
2013,02,09,05,44,2.80
2013,02,09,05,45,2.80
2013,02,09,05,46,2.80
2013,02,09,05,47,2.80
2013,02,09,05,48,2.80
2013,02,09,05,49,2.80
2013,02,09,05,50,2.80
2013,02,09,05,51,2.80
2013,02,09,05,52,2.80
2013,02,09,05,53,2.80
2013,02,09,05,54,2.80
2013,02,09,05,55,2.80
2013,02,09,05,56,2.80
2013,02,09,05,57,2.80
2013,02,09,05,58,2.80
2013,02,09,05,59,2.80
2013,02,09,06,00,2.80
2013,02,09,06,01,2.90
2013,02,09,06,02,2.90
2013,02,09,06,03,2.90
2013,02,09,06,04,2.90
2013,02,09,06,05,2.90
2013,02,09,06,06,2.90
2013,02,09,06,07,2.90
2013,02,09,06,08,2.90
2013,02,09,06,09,2.90
2013,02,09,06,10,2.90
2013,02,09,06,11,2.90
2013,02,09,06,12,2.90
2013,02,09,06,13,2.90
2013,02,09,06,14,2.80
2013,02,09,06,15,2.80
2013,02,09,06,16,2.80
2013,02,09,06,17,2.80
2013,02,09,06,18,2.80
2013,02,09,06,19,2.80
2013,02,09,06,20,2.90
2013,02,09,06,21,2.90
2013,02,09,06,22,2.90
2013,02,09,06,23,2.90
2013,02,09,06,24,2.90
2013,02,09,06,25,2.90
2013,02,09,06,26,2.90
2013,02,09,06,27,2.90
2013,02,09,06,28,2.90
2013,02,09,06,29,2.90
2013,02,09,06,30,2.90
2013,02,09,06,31,2.80
2013,02,09,06,32,2.80
2013,02,09,06,33,2.80
2013,02,09,06,34,2.80
2013,02,09,06,35,2.80
2013,02,09,06,36,2.80
2013,02,09,06,37,2.80
2013,02,09,06,38,2.80
2013,02,09,06,39,2.80
2013,02,09,06,40,2.80
2013,02,09,06,41,2.80
2013,02,09,06,42,2.80
2013,02,09,06,43,2.80
2013,02,09,06,44,2.80
2013,02,09,06,45,2.80
2013,02,09,06,46,2.80
2013,02,09,06,47,2.80
2013,02,09,06,48,2.80
2013,02,09,06,49,2.80
2013,02,09,06,50,2.80
2013,02,09,06,51,2.80
2013,02,09,06,52,2.80
2013,02,09,06,53,2.80
2013,02,09,06,54,2.80
2013,02,09,06,55,2.80
2013,02,09,06,56,2.80
2013,02,09,06,57,2.80
2013,02,09,06,58,2.80
2013,02,09,06,59,2.80
2013,02,09,07,00,2.80
2013,02,09,07,01,2.80
2013,02,09,07,02,2.80
2013,02,09,07,03,2.80
2013,02,09,07,04,2.80
2013,02,09,07,05,2.80
2013,02,09,07,06,2.80
2013,02,09,07,07,2.80
2013,02,09,07,08,2.80
2013,02,09,07,09,2.80
2013,02,09,07,10,2.80
2013,02,09,07,11,2.80
2013,02,09,07,12,2.80
2013,02,09,07,13,2.80
2013,02,09,07,14,2.70
2013,02,09,07,15,2.70
2013,02,09,07,16,2.70
2013,02,09,07,17,2.70
2013,02,09,07,18,2.70
2013,02,09,07,19,2.70
2013,02,09,07,20,2.70
2013,02,09,07,21,2.70
2013,02,09,07,22,2.70
2013,02,09,07,23,2.70
2013,02,09,07,24,2.70
2013,02,09,07,25,2.70
2013,02,09,07,26,2.70
2013,02,09,07,27,2.70
2013,02,09,07,28,2.70
2013,02,09,07,29,2.70
2013,02,09,07,30,2.70
2013,02,09,07,31,2.70
2013,02,09,07,32,2.70
2013,02,09,07,33,2.70
2013,02,09,07,34,2.70
2013,02,09,07,35,2.70
2013,02,09,07,36,2.70
2013,02,09,07,37,2.70
2013,02,09,07,38,2.70
2013,02,09,07,39,2.70
2013,02,09,07,40,2.70
2013,02,09,07,41,2.70
2013,02,09,07,42,2.80
2013,02,09,07,43,2.80
2013,02,09,07,44,2.80
2013,02,09,07,45,2.80
2013,02,09,07,46,2.80
2013,02,09,07,47,2.80
2013,02,09,07,48,2.80
2013,02,09,07,49,2.80
2013,02,09,07,50,2.80
2013,02,09,07,51,2.80
2013,02,09,07,52,2.80
2013,02,09,07,53,2.80
2013,02,09,07,54,2.80
2013,02,09,07,55,2.80
2013,02,09,07,56,2.80
2013,02,09,07,57,2.80
2013,02,09,07,58,2.80
2013,02,09,07,59,2.80
2013,02,09,08,00,2.80
2013,02,09,08,01,2.80
2013,02,09,08,02,2.80
2013,02,09,08,03,2.80
2013,02,09,08,04,2.80
2013,02,09,08,05,2.80
2013,02,09,08,06,2.80
2013,02,09,08,07,2.90
2013,02,09,08,08,2.90
2013,02,09,08,09,2.90
2013,02,09,08,10,2.90
2013,02,09,08,11,2.90
2013,02,09,08,12,2.90
2013,02,09,08,13,3.00
2013,02,09,08,14,3.00
2013,02,09,08,15,3.00
2013,02,09,08,16,3.00
2013,02,09,08,17,3.00
2013,02,09,08,18,3.10
2013,02,09,08,19,3.10
2013,02,09,08,20,3.10
2013,02,09,08,21,3.10
2013,02,09,08,22,3.10
2013,02,09,08,23,3.10
2013,02,09,08,24,3.10
2013,02,09,08,25,3.10
2013,02,09,08,26,3.10
2013,02,09,08,27,3.10
2013,02,09,08,28,3.10
2013,02,09,08,29,3.20
2013,02,09,08,30,3.20
2013,02,09,08,31,3.20
2013,02,09,08,32,3.20
2013,02,09,08,33,3.20
2013,02,09,08,34,3.20
2013,02,09,08,35,3.20
2013,02,09,08,36,3.20
2013,02,09,08,37,3.20
2013,02,09,08,38,3.20
2013,02,09,08,39,3.20
2013,02,09,08,40,3.20
2013,02,09,08,41,3.20
2013,02,09,08,42,3.20
2013,02,09,08,43,3.20
2013,02,09,08,44,3.20
2013,02,09,08,45,3.20
2013,02,09,08,46,3.20
2013,02,09,08,47,3.20
2013,02,09,08,48,3.20
2013,02,09,08,49,3.30
2013,02,09,08,50,3.30
2013,02,09,08,51,3.30
2013,02,09,08,52,3.30
2013,02,09,08,53,3.30
2013,02,09,08,54,3.30
2013,02,09,08,55,3.30
2013,02,09,08,56,3.30
2013,02,09,08,57,3.30
2013,02,09,08,58,3.30
2013,02,09,08,59,3.30
2013,02,09,09,00,3.30
2013,02,09,09,01,3.30
2013,02,09,09,02,3.30
2013,02,09,09,03,3.30
2013,02,09,09,04,3.30
2013,02,09,09,05,3.40
2013,02,09,09,06,3.40
2013,02,09,09,07,3.40
2013,02,09,09,08,3.40
2013,02,09,09,09,3.40
2013,02,09,09,10,3.40
2013,02,09,09,11,3.40
2013,02,09,09,12,3.50
2013,02,09,09,13,3.50
2013,02,09,09,14,3.50
2013,02,09,09,15,3.60
2013,02,09,09,16,3.60
2013,02,09,09,17,3.60
2013,02,09,09,18,3.60
2013,02,09,09,19,3.70
2013,02,09,09,20,3.70
2013,02,09,09,21,3.70
2013,02,09,09,22,3.70
2013,02,09,09,23,3.80
2013,02,09,09,24,3.70
2013,02,09,09,25,3.80
2013,02,09,09,26,3.80
2013,02,09,09,27,3.80
2013,02,09,09,28,3.80
2013,02,09,09,29,3.80
2013,02,09,09,30,3.90
2013,02,09,09,31,3.90
2013,02,09,09,32,3.90
2013,02,09,09,33,3.90
2013,02,09,09,34,4.00
2013,02,09,09,35,4.00
2013,02,09,09,36,4.00
2013,02,09,09,37,4.10
2013,02,09,09,38,4.10
2013,02,09,09,39,4.10
2013,02,09,09,40,4.10
2013,02,09,09,41,4.20
2013,02,09,09,42,4.20
2013,02,09,09,43,4.20
2013,02,09,09,44,4.20
2013,02,09,09,45,4.20
2013,02,09,09,46,4.20
2013,02,09,09,47,4.20
2013,02,09,09,48,4.20
2013,02,09,09,49,4.30
2013,02,09,09,50,4.30
2013,02,09,09,51,4.30
2013,02,09,09,52,4.30
2013,02,09,09,53,4.30
2013,02,09,09,54,4.30
2013,02,09,09,55,4.30
2013,02,09,09,56,4.30
2013,02,09,09,57,4.30
2013,02,09,09,58,4.30
2013,02,09,09,59,4.30
2013,02,09,10,00,4.30
2013,02,09,10,01,4.40
2013,02,09,10,02,4.40
2013,02,09,10,03,4.40
2013,02,09,10,04,4.40
2013,02,09,10,05,4.40
2013,02,09,10,06,4.40
2013,02,09,10,07,4.40
2013,02,09,10,08,4.40
2013,02,09,10,09,4.50
2013,02,09,10,10,4.50
2013,02,09,10,11,4.50
2013,02,09,10,12,4.50
2013,02,09,10,13,4.60
2013,02,09,10,14,4.60
2013,02,09,10,15,4.60
2013,02,09,10,16,4.60
2013,02,09,10,17,4.60
2013,02,09,10,18,4.70
2013,02,09,10,19,4.70
2013,02,09,10,20,4.70
2013,02,09,10,21,4.70
2013,02,09,10,22,4.70
2013,02,09,10,23,4.70
2013,02,09,10,24,4.70
2013,02,09,10,25,4.80
2013,02,09,10,26,4.80
2013,02,09,10,27,4.80
2013,02,09,10,28,4.80
2013,02,09,10,29,4.80
2013,02,09,10,30,4.80
2013,02,09,10,31,4.80
2013,02,09,10,32,4.80
2013,02,09,10,33,4.80
2013,02,09,10,34,4.80
2013,02,09,10,35,4.80
2013,02,09,10,36,4.80
2013,02,09,10,37,4.80
2013,02,09,10,38,4.80
2013,02,09,10,39,4.80
2013,02,09,10,40,4.80
2013,02,09,10,41,4.80
2013,02,09,10,42,4.80
2013,02,09,10,43,4.90
2013,02,09,10,44,4.90
2013,02,09,10,45,4.90
2013,02,09,10,46,4.90
2013,02,09,10,47,4.90
2013,02,09,10,48,4.90
2013,02,09,10,49,4.90
2013,02,09,10,50,4.90
2013,02,09,10,51,4.90
2013,02,09,10,52,5.00
2013,02,09,10,53,5.00
2013,02,09,10,54,5.00
2013,02,09,10,55,5.00
2013,02,09,10,56,5.00
2013,02,09,10,57,5.10
2013,02,09,10,58,5.10
2013,02,09,10,59,5.10
2013,02,09,11,00,5.10
2013,02,09,11,01,5.20
2013,02,09,11,02,5.20
2013,02,09,11,03,5.20
2013,02,09,11,04,5.20
2013,02,09,11,05,5.20
2013,02,09,11,06,5.30
2013,02,09,11,07,5.30
2013,02,09,11,08,5.30
2013,02,09,11,09,5.40
2013,02,09,11,10,5.40
2013,02,09,11,11,5.40
2013,02,09,11,12,5.40
2013,02,09,11,13,5.50
2013,02,09,11,14,5.50
2013,02,09,11,15,5.60
2013,02,09,11,16,5.60
2013,02,09,11,17,5.60
2013,02,09,11,18,5.70
2013,02,09,11,19,5.70
2013,02,09,11,20,5.70
2013,02,09,11,21,5.70
2013,02,09,11,22,5.80
2013,02,09,11,23,5.80
2013,02,09,11,24,5.80
2013,02,09,11,25,5.80
2013,02,09,11,26,5.80
2013,02,09,11,27,5.80
2013,02,09,11,28,5.80
2013,02,09,11,29,5.90
2013,02,09,11,30,5.90
2013,02,09,11,31,5.90
2013,02,09,11,32,5.90
2013,02,09,11,33,5.90
2013,02,09,11,34,5.90
2013,02,09,11,35,6.00
2013,02,09,11,36,6.00
2013,02,09,11,37,6.00
2013,02,09,11,38,6.00
2013,02,09,11,39,6.00
2013,02,09,11,40,6.10
2013,02,09,11,41,6.10
2013,02,09,11,42,6.20
2013,02,09,11,43,6.20
2013,02,09,11,44,6.20
2013,02,09,11,45,6.20
2013,02,09,11,46,6.20
2013,02,09,11,47,6.30
2013,02,09,11,48,6.30
2013,02,09,11,49,6.30
2013,02,09,11,50,6.30
2013,02,09,11,51,6.30
2013,02,09,11,52,6.30
2013,02,09,11,53,6.30
2013,02,09,11,54,6.30
2013,02,09,11,55,6.30
2013,02,09,11,56,6.30
2013,02,09,11,57,6.30
2013,02,09,11,58,6.30
2013,02,09,11,59,6.30
2013,02,09,12,00,6.30
2013,02,09,12,01,6.30
2013,02,09,12,02,6.30
2013,02,09,12,03,6.40
2013,02,09,12,04,6.40
2013,02,09,12,05,6.40
2013,02,09,12,06,6.40
2013,02,09,12,07,6.40
2013,02,09,12,08,6.40
2013,02,09,12,09,6.40
2013,02,09,12,10,6.50
2013,02,09,12,11,6.50
2013,02,09,12,12,6.60
2013,02,09,12,13,6.60
2013,02,09,12,14,6.70
2013,02,09,12,15,6.70
2013,02,09,12,16,6.80
2013,02,09,12,17,6.80
2013,02,09,12,18,6.90
2013,02,09,12,19,6.90
2013,02,09,12,20,6.90
2013,02,09,12,21,7.00
2013,02,09,12,22,7.00
2013,02,09,12,23,7.00
2013,02,09,12,24,7.00
2013,02,09,12,25,7.00
2013,02,09,12,26,6.90
2013,02,09,12,27,6.90
2013,02,09,12,28,6.90
2013,02,09,12,29,7.00
2013,02,09,12,30,7.00
2013,02,09,12,31,7.00
2013,02,09,12,32,7.00
2013,02,09,12,33,7.00
2013,02,09,12,34,6.90
2013,02,09,12,35,6.90
2013,02,09,12,36,6.80
2013,02,09,12,37,6.80
2013,02,09,12,38,6.80
2013,02,09,12,39,6.70
2013,02,09,12,40,6.70
2013,02,09,12,41,6.70
2013,02,09,12,42,6.70
2013,02,09,12,43,6.70
2013,02,09,12,44,6.70
2013,02,09,12,45,6.80
2013,02,09,12,46,6.80
2013,02,09,12,47,6.80
2013,02,09,12,48,6.80
2013,02,09,12,49,6.80
2013,02,09,12,50,6.80
2013,02,09,12,51,6.90
2013,02,09,12,52,6.90
2013,02,09,12,53,6.90
2013,02,09,12,54,6.90
2013,02,09,12,55,6.90
2013,02,09,12,56,6.90
2013,02,09,12,57,6.90
2013,02,09,12,58,6.90
2013,02,09,12,59,6.90
2013,02,09,13,00,6.90
2013,02,09,13,01,6.90
2013,02,09,13,02,6.90
2013,02,09,13,03,6.90
2013,02,09,13,04,6.90
2013,02,09,13,05,7.00
2013,02,09,13,06,7.00
2013,02,09,13,07,7.10
2013,02,09,13,08,7.10
2013,02,09,13,09,7.10
2013,02,09,13,10,7.10
2013,02,09,13,11,7.10
2013,02,09,13,12,7.20
2013,02,09,13,13,7.20
2013,02,09,13,14,7.20
2013,02,09,13,15,7.30
2013,02,09,13,16,7.30
2013,02,09,13,17,7.40
2013,02,09,13,18,7.40
2013,02,09,13,19,7.50
2013,02,09,13,20,7.60
2013,02,09,13,21,7.60
2013,02,09,13,22,7.60
2013,02,09,13,23,7.60
2013,02,09,13,24,7.60
2013,02,09,13,25,7.50
2013,02,09,13,26,7.40
2013,02,09,13,27,7.40
2013,02,09,13,28,7.30
2013,02,09,13,29,7.30
2013,02,09,13,30,7.30
2013,02,09,13,31,7.30
2013,02,09,13,32,7.30
2013,02,09,13,33,7.30
2013,02,09,13,34,7.30
2013,02,09,13,35,7.30
2013,02,09,13,36,7.30
2013,02,09,13,37,7.30
2013,02,09,13,38,7.30
2013,02,09,13,39,7.30
2013,02,09,13,40,7.30
2013,02,09,13,41,7.30
2013,02,09,13,42,7.30
2013,02,09,13,43,7.30
2013,02,09,13,44,7.30
2013,02,09,13,45,7.30
2013,02,09,13,46,7.30
2013,02,09,13,47,7.30
2013,02,09,13,48,7.40
2013,02,09,13,49,7.40
2013,02,09,13,50,7.40
2013,02,09,13,51,7.30
2013,02,09,13,52,7.40
2013,02,09,13,53,7.40
2013,02,09,13,54,7.40
2013,02,09,13,55,7.40
2013,02,09,13,56,7.40
2013,02,09,13,57,7.40
2013,02,09,13,58,7.40
2013,02,09,13,59,7.50
2013,02,09,14,00,7.50
2013,02,09,14,01,7.50
2013,02,09,14,02,7.60
2013,02,09,14,03,7.60
2013,02,09,14,04,7.60
2013,02,09,14,05,7.60
2013,02,09,14,06,7.70
2013,02,09,14,07,7.70
2013,02,09,14,08,7.70
2013,02,09,14,09,7.70
2013,02,09,14,10,7.70
2013,02,09,14,11,7.70
2013,02,09,14,12,7.70
2013,02,09,14,13,7.70
2013,02,09,14,14,7.70
2013,02,09,14,15,7.70
2013,02,09,14,16,7.60
2013,02,09,14,17,7.60
2013,02,09,14,18,7.60
2013,02,09,14,19,7.70
2013,02,09,14,20,7.60
2013,02,09,14,21,7.60
2013,02,09,14,22,7.60
2013,02,09,14,23,7.60
2013,02,09,14,24,7.60
2013,02,09,14,25,7.60
2013,02,09,14,26,7.50
2013,02,09,14,27,7.50
2013,02,09,14,28,7.40
2013,02,09,14,29,7.40
2013,02,09,14,30,7.40
2013,02,09,14,31,7.40
2013,02,09,14,32,7.40
2013,02,09,14,33,7.40
2013,02,09,14,34,7.40
2013,02,09,14,35,7.40
2013,02,09,14,36,7.40
2013,02,09,14,37,7.40
2013,02,09,14,38,7.40
2013,02,09,14,39,7.40
2013,02,09,14,40,7.40
2013,02,09,14,41,7.40
2013,02,09,14,42,7.50
2013,02,09,14,43,7.50
2013,02,09,14,44,7.60
2013,02,09,14,45,7.70
2013,02,09,14,46,7.70
2013,02,09,14,47,7.80
2013,02,09,14,48,7.80
2013,02,09,14,49,7.80
2013,02,09,14,50,7.90
2013,02,09,14,51,7.90
2013,02,09,14,52,7.90
2013,02,09,14,53,7.90
2013,02,09,14,54,7.80
2013,02,09,14,55,7.80
2013,02,09,14,56,7.80
2013,02,09,14,57,7.80
2013,02,09,14,58,7.80
2013,02,09,14,59,7.80
2013,02,09,15,00,7.80
2013,02,09,15,01,7.80
2013,02,09,15,02,7.70
2013,02,09,15,03,7.70
2013,02,09,15,04,7.70
2013,02,09,15,05,7.60
2013,02,09,15,06,7.60
2013,02,09,15,07,7.50
2013,02,09,15,08,7.50
2013,02,09,15,09,7.50
2013,02,09,15,10,7.50
2013,02,09,15,11,7.50
2013,02,09,15,12,7.50
2013,02,09,15,13,7.50
2013,02,09,15,14,7.50
2013,02,09,15,15,7.50
2013,02,09,15,16,7.50
2013,02,09,15,17,7.50
2013,02,09,15,18,7.50
2013,02,09,15,19,7.50
2013,02,09,15,20,7.40
2013,02,09,15,21,7.40
2013,02,09,15,22,7.40
2013,02,09,15,23,7.40
2013,02,09,15,24,7.50
2013,02,09,15,25,7.50
2013,02,09,15,26,7.40
2013,02,09,15,27,7.40
2013,02,09,15,28,7.40
2013,02,09,15,29,7.40
2013,02,09,15,30,7.40
2013,02,09,15,31,7.40
2013,02,09,15,32,7.40
2013,02,09,15,33,7.50
2013,02,09,15,34,7.50
2013,02,09,15,35,7.50
2013,02,09,15,36,7.50
2013,02,09,15,37,7.50
2013,02,09,15,38,7.50
2013,02,09,15,39,7.50
2013,02,09,15,40,7.50
2013,02,09,15,41,7.40
2013,02,09,15,42,7.40
2013,02,09,15,43,7.40
2013,02,09,15,44,7.40
2013,02,09,15,45,7.30
2013,02,09,15,46,7.30
2013,02,09,15,47,7.30
2013,02,09,15,48,7.30
2013,02,09,15,49,7.30
2013,02,09,15,50,7.30
2013,02,09,15,51,7.30
2013,02,09,15,52,7.30
2013,02,09,15,53,7.30
2013,02,09,15,54,7.30
2013,02,09,15,55,7.30
2013,02,09,15,56,7.30
2013,02,09,15,57,7.40
2013,02,09,15,58,7.40
2013,02,09,15,59,7.40
2013,02,09,16,00,7.30
2013,02,09,16,01,7.30
2013,02,09,16,02,7.30
2013,02,09,16,03,7.30
2013,02,09,16,04,7.30
2013,02,09,16,05,7.30
2013,02,09,16,06,7.30
2013,02,09,16,07,7.30
2013,02,09,16,08,7.30
2013,02,09,16,09,7.30
2013,02,09,16,10,7.30
2013,02,09,16,11,7.30
2013,02,09,16,12,7.20
2013,02,09,16,13,7.20
2013,02,09,16,14,7.20
2013,02,09,16,15,7.20
2013,02,09,16,16,7.20
2013,02,09,16,17,7.20
2013,02,09,16,18,7.20
2013,02,09,16,19,7.20
2013,02,09,16,20,7.30
2013,02,09,16,21,7.30
2013,02,09,16,22,7.30
2013,02,09,16,23,7.30
2013,02,09,16,24,7.20
2013,02,09,16,25,7.20
2013,02,09,16,26,7.20
2013,02,09,16,27,7.20
2013,02,09,16,28,7.20
2013,02,09,16,29,7.10
2013,02,09,16,30,7.10
2013,02,09,16,31,7.10
2013,02,09,16,32,7.10
2013,02,09,16,33,7.10
2013,02,09,16,34,7.10
2013,02,09,16,35,7.10
2013,02,09,16,36,7.10
2013,02,09,16,37,7.10
2013,02,09,16,38,7.10
2013,02,09,16,39,7.10
2013,02,09,16,40,7.10
2013,02,09,16,41,7.10
2013,02,09,16,42,7.10
2013,02,09,16,43,7.10
2013,02,09,16,44,7.10
2013,02,09,16,45,7.10
2013,02,09,16,46,7.10
2013,02,09,16,47,7.10
2013,02,09,16,48,7.10
2013,02,09,16,49,7.00
2013,02,09,16,50,7.00
2013,02,09,16,51,7.00
2013,02,09,16,52,7.00
2013,02,09,16,53,7.00
2013,02,09,16,54,7.00
2013,02,09,16,55,7.00
2013,02,09,16,56,7.00
2013,02,09,16,57,7.00
2013,02,09,16,58,7.00
2013,02,09,16,59,7.00
2013,02,09,17,00,6.90
2013,02,09,17,01,6.90
2013,02,09,17,02,6.90
2013,02,09,17,03,6.90
2013,02,09,17,04,6.90
2013,02,09,17,05,6.90
2013,02,09,17,06,6.90
2013,02,09,17,07,6.90
2013,02,09,17,08,6.90
2013,02,09,17,09,6.90
2013,02,09,17,10,6.90
2013,02,09,17,11,6.90
2013,02,09,17,12,6.90
2013,02,09,17,13,6.90
2013,02,09,17,14,6.90
2013,02,09,17,15,6.90
2013,02,09,17,16,6.90
2013,02,09,17,17,6.90
2013,02,09,17,18,6.90
2013,02,09,17,19,6.90
2013,02,09,17,20,6.90
2013,02,09,17,21,6.90
2013,02,09,17,22,6.90
2013,02,09,17,23,6.90
2013,02,09,17,24,6.90
2013,02,09,17,25,6.90
2013,02,09,17,26,6.90
2013,02,09,17,27,6.90
2013,02,09,17,28,6.90
2013,02,09,17,29,6.90
2013,02,09,17,30,6.80
2013,02,09,17,31,6.80
2013,02,09,17,32,6.80
2013,02,09,17,33,6.80
2013,02,09,17,34,6.80
2013,02,09,17,35,6.80
2013,02,09,17,36,6.80
2013,02,09,17,37,6.80
2013,02,09,17,38,6.80
2013,02,09,17,39,6.80
2013,02,09,17,40,6.80
2013,02,09,17,41,6.70
2013,02,09,17,42,6.70
2013,02,09,17,43,6.70
2013,02,09,17,44,6.70
2013,02,09,17,45,6.70
2013,02,09,17,46,6.70
2013,02,09,17,47,6.70
2013,02,09,17,48,6.70
2013,02,09,17,49,6.70
2013,02,09,17,50,6.60
2013,02,09,17,51,6.60
2013,02,09,17,52,6.50
2013,02,09,17,53,6.50
2013,02,09,17,54,6.40
2013,02,09,17,55,6.40
2013,02,09,17,56,6.40
2013,02,09,17,57,6.40
2013,02,09,17,58,6.40
2013,02,09,17,59,6.40
2013,02,09,18,00,6.30
2013,02,09,18,01,6.30
2013,02,09,18,02,6.30
2013,02,09,18,03,6.30
2013,02,09,18,04,6.30
2013,02,09,18,05,6.30
2013,02,09,18,06,6.20